Air Force Academy, CO

2:09 PM MDT on May 23, 2017 (GMT -0600)
Usaf Academy

Weather History for KAFF - June, 2013

Change the Weather History Date:

Thursday, June 6, 2013

  Actual Average Record
Temperature  
Mean Temperature 60 °F -  
Max Temperature 74 °F 71 °F 90 °F (2011)
Min Temperature 46 °F 44 °F 37 °F (2003)
Degree Days  
Heating Degree Days 6    
Growing Degree Days 10 (Base 50)    
Moisture  
Dew Point 43 °F    
Average Humidity 66    
Maximum Humidity 100    
Minimum Humidity 27    
Precipitation  
Precipitation 0.00 in - - ()
Sea Level Pressure  
Sea Level Pressure 30.06 in    
Wind  
Wind Speed 5 mph (SSE)    
Max Wind Speed 16 mph    
Max Gust Speed 24 mph    
Visibility 10 miles    
Events Thunderstorm    
Averages and records for this station are not official NWS values.
T = Trace of Precipitation, MM = Missing Value Source: NWS Daily Summary

Daily Weather History Graph

Daily Weather History Graph

Search for Another Location

Airport or City:

Trip Planner

Search our weather history database for the weather conditions in past years. The results will help you decide how hot, cold, wet, or windy it might be!

Date:

Astronomy

Jun. 06, 2013 Rise Set
Actual Time 5:33 AM MDT 8:22 PM MDT
Civil Twilight 5:02 AM MDT 8:54 PM MDT
Nautical Twilight 4:22 AM MDT 9:34 PM MDT
Astronomical Twilight 3:36 AM MDT 10:19 PM MDT
Moon 4:16 AM MDT (6/6) 6:47 PM MDT (6/6)
Length of Visible Light 15h 51m
Length of Day
14h 48m
Waning Crescent, 3% of the Moon is Illuminated
Jun 6
Waning Crescent
Jun 8
New
Jun 16
First Quarter
Jun 23
Full
Jun 29
Last Quarter

Hourly Weather History & Observations

Time (MDT) Temp. Dew Point Humidity Pressure Visibility Wind Dir Wind Speed Gust Speed Precip Events Conditions
12:08 AM 48.2 °F 48.2 °F 100% 30.22 in 10.0 mi SSE 5.8 mph - N/A   Overcast
12:58 AM 48.4 °F 48.2 °F 99% 30.10 in 10.0 mi SSW 8.1 mph - N/A   Overcast
1:13 AM 48.2 °F 48.2 °F 100% 30.22 in 10.0 mi South 6.9 mph - N/A   Overcast
1:23 AM 48.2 °F 48.2 °F 100% 30.22 in 10.0 mi South 8.1 mph - N/A   Overcast
1:58 AM 47.8 °F 47.7 °F 99% 30.08 in 10.0 mi South 4.6 mph - N/A   Overcast
2:58 AM 47.8 °F 47.5 °F 99% 30.07 in 10.0 mi SSE 4.6 mph - N/A   Overcast
3:03 AM 48.2 °F 48.2 °F 100% 30.19 in 10.0 mi SSE 3.5 mph - N/A   Overcast
3:33 AM 48.2 °F 46.4 °F 93% 30.18 in 10.0 mi ESE 1.2 mph - N/A   Overcast
3:38 AM 48.2 °F 46.4 °F 93% 30.17 in 10.0 mi NE 1.2 mph - N/A   Overcast
3:58 AM 46.9 °F 46.2 °F 97% 30.06 in 10.0 mi NNE 2.3 mph - N/A   Overcast
4:33 AM 46.4 °F 46.4 °F 100% 30.17 in 10.0 mi SSW 2.3 mph - N/A   Overcast
4:58 AM 46.8 °F 46.4 °F 99% 30.06 in 10.0 mi SSE 1.2 mph - N/A   Overcast
5:58 AM 46.2 °F 46.0 °F 99% 30.06 in 10.0 mi Variable 1.2 mph - N/A   Overcast
6:58 AM 46.8 °F 46.6 °F 99% 30.06 in 9.0 mi Calm Calm - N/A   Overcast
7:58 AM 48.0 °F 45.9 °F 92% 30.06 in 10.0 mi Variable 2.3 mph - N/A   Overcast
8:08 AM 50.0 °F 44.6 °F 82% 30.18 in 10.0 mi North 2.3 mph - N/A   Scattered Clouds
8:58 AM 53.8 °F 44.8 °F 72% 30.05 in 10.0 mi South 4.6 mph - N/A   Clear
9:58 AM 58.6 °F 44.4 °F 59% 30.04 in 10.0 mi Variable 4.6 mph - N/A   Clear
10:58 AM 64.2 °F 44.4 °F 49% 30.01 in 10.0 mi South 8.1 mph - N/A   Clear
11:58 AM 68.2 °F 41.9 °F 38% 29.98 in 10.0 mi SSE 9.2 mph - N/A   Partly Cloudy
12:06 PM 68.0 °F 42.8 °F 40% 30.17 in 10.0 mi SSW 9.2 mph - N/A   Light Drizzle
12:58 PM 70.9 °F 38.5 °F 31% 29.95 in 10.0 mi SE 10.4 mph - N/A   Partly Cloudy
1:58 PM 73.2 °F 37.4 °F 27% 29.93 in 10.0 mi Variable 6.9 mph - N/A   Partly Cloudy
2:58 PM 73.0 °F 38.7 °F 29% 29.93 in 10.0 mi East 10.4 mph 17.3 mph N/A Thunderstorm Partly Cloudy
3:49 PM 71.6 °F 39.2 °F 31% 30.14 in 10.0 mi SSW 10.4 mph - N/A Thunderstorm Light Drizzle
3:58 PM 72.3 °F 40.1 °F 31% 29.95 in 10.0 mi Variable 6.9 mph 17.3 mph 0.00 in Thunderstorm Light Drizzle
4:10 PM 71.6 °F 41.0 °F 33% 30.14 in 10.0 mi SSE 16.1 mph 24.2 mph N/A   Partly Cloudy
4:58 PM 72.0 °F 39.2 °F 30% 29.95 in 10.0 mi South 11.5 mph - 0.00 in   Clear
5:58 PM 70.2 °F 37.2 °F 30% 29.94 in 10.0 mi Variable 1.2 mph - N/A   Clear
6:58 PM 69.3 °F 37.9 °F 32% 29.95 in 10.0 mi SSE 3.5 mph - N/A   Mostly Cloudy
7:58 PM 67.3 °F 39.0 °F 35% 29.97 in 10.0 mi SE 6.9 mph - N/A   Mostly Cloudy
8:58 PM 65.8 °F 39.0 °F 37% 29.97 in 10.0 mi East 2.3 mph - N/A   Scattered Clouds
9:58 PM 64.8 °F 42.8 °F 45% 29.98 in 10.0 mi SSW 3.5 mph - N/A   Mostly Cloudy
10:58 PM 61.3 °F 41.4 °F 48% 29.99 in 10.0 mi North 3.5 mph - N/A   Clear
11:58 PM 57.2 °F 39.7 °F 52% 29.99 in 10.0 mi North 5.8 mph - N/A   Mostly Cloudy